START_TIME,STEP,MOV.,M6,t_acc.,M7,t_acc.,M19,t_acc.,H36,t_acc.
1981-08-29 09:00:27.730 ,4,1,0.,12.0,0.,12.0,0.,12.0,0.,12.0
1981-08-29 09:00:39.730 ,4,1,0.,12.0,0.,12.0,0.,12.0,0.,12.0
1981-08-29 09:00:51.730 ,3,1,0.,12.0,0.,12.0,0.,12.0,0.,12.0
1981-08-29 09:01:03.730 ,3,1,0.,12.0,0.,12.0,0.,12.0,0.,12.0
1981-08-29 09:01:15.730 ,2,1,0.,12.0,0.,12.0,0.,12.0,0.,12.0
1981-08-29 09:01:27.730 ,2,1,0.,12.0,0.,12.0,0.,12.0,0.,12.0
1981-08-29 09:01:39.730 ,1,1,0.,12.0,0.,12.0,0.,12.0,0.,12.0
1981-08-29 09:01:51.730 ,1,1,0.,12.0,0.,12.0,0.,12.0,0.,12.0
1981-08-29 09:02:03.730 ,0,1,0.,12.0,0.,12.0,0.,12.0,0.,12.0
1981-08-29 09:02:15.730 ,0,1,0.,12.0,0.,12.0,0.,12.0,0.,12.0
1981-08-29 09:02:27.730 ,0,1,0.,12.0,0.,12.0,0.,12.0,0.,12.0
1981-08-29 09:02:39.730 ,0,1,0.,12.0,0.,12.0,0.,12.0,0.,12.0
1981-08-29 09:02:51.730 ,1,1,0.,12.0,0.,12.0,0.,12.0,0.,12.0
1981-08-29 09:03:03.730 ,1,1,0.,12.0,0.,12.0,0.,12.0,0.,12.0
1981-08-29 09:03:15.730 ,2,1,0.,12.0,0.,12.0,0.,12.0,0.,12.0
1981-08-29 09:03:27.730 ,2,1,0.,12.0,0.,12.0,0.,12.0,0.,12.0
1981-08-29 09:03:39.730 ,3,1,0.,12.0,0.,12.0,0.,12.0,0.,12.0
1981-08-29 09:03:51.730 ,3,1,0.,12.0,0.,12.0,0.,12.0,0.,12.0
1981-08-29 09:04:03.730 ,4,1,0.,12.0,0.,12.0,0.,12.0,0.,12.0
1981-08-29 09:04:15.730 ,4,1,0.,12.0,0.,12.0,0.,12.0,0.,12.0
1981-08-29 09:04:27.730 ,5,1,0.,12.0,0.,12.0,0.,12.0,0.,12.0
1981-08-29 09:04:39.730 ,5,1,0.,12.0,0.,12.0,0.,12.0,0.,12.0
1981-08-29 09:04:51.730 ,6,1,0.,12.0,0.,12.0,0.,12.0,0.,12.0
1981-08-29 09:05:03.730 ,6,1,0.,12.0,0.,12.0,0.,12.0,0.,12.0
1981-08-29 09:05:15.730 ,7,1,0.,12.0,0.,12.0,0.,12.0,0.,12.0
1981-08-29 09:05:27.730 ,7,1,0.,12.0,0.,12.0,0.,12.0,0.,12.0
1981-08-29 09:05:39.730 ,7,1,0.,12.0,0.,12.0,0.,12.0,0.,12.0
1981-08-29 09:05:51.730 ,7,1,0.,12.0,0.,12.0,0.,12.0,0.,12.0
1981-08-29 09:06:03.730 ,7,0,0.,12.0,0.,12.0,0.,12.0,0.,12.0
1981-08-29 09:06:15.730 ,7,0,0.,12.0,0.,12.0,0.,12.0,0.,12.0
1981-08-29 09:06:27.730 ,6,1,0.,12.0,0.,12.0,0.,12.0,0.,12.0
1981-08-29 09:06:39.730 ,6,1,0.,12.0,0.,12.0,0.,12.0,0.,12.0
1981-08-29 09:06:51.730 ,6,0,0.,12.0,0.,12.0,0.,12.0,0.,12.0
1981-08-29 09:07:03.730 ,6,0,0.,12.0,0.,12.0,0.,12.0,0.,12.0
1981-08-29 09:07:15.730 ,5,1,0.,12.0,0.,12.0,0.,12.0,0.,12.0
1981-08-29 09:07:27.730 ,5,1,0.,12.0,0.,12.0,0.,12.0,0.,12.0
1981-08-29 09:07:39.730 ,5,0,0.,12.0,0.,12.0,0.,12.0,0.,12.0
1981-08-29 09:07:51.730 ,5,0,0.,12.0,0.,12.0,0.,12.0,0.,12.0
1981-08-29 09:08:03.730 ,4,1,0.,12.0,0.,12.0,0.,12.0,0.,12.0
1981-08-29 09:08:15.730 ,4,1,0.,12.0,0.,12.0,0.,12.0,0.,12.0
1981-08-29 09:08:27.730 ,4,0,0.,12.0,0.,12.0,0.,12.0,0.,12.0
1981-08-29 09:08:39.730 ,4,0,0.,12.0,0.,12.0,0.,12.0,0.,12.0
1981-08-29 09:08:51.730 ,3,1,0.,12.0,0.,12.0,0.,12.0,0.,12.0
1981-08-29 09:09:03.730 ,3,1,0.,12.0,0.,12.0,0.,12.0,0.,12.0
1981-08-29 09:09:15.730 ,3,0,0.,12.0,0.,12.0,0.,12.0,0.,12.0
1981-08-29 09:09:27.730 ,3,0,0.,12.0,0.,12.0,0.,12.0,0.,12.0
1981-08-29 09:09:39.730 ,2,1,0.,12.0,0.,12.0,0.,12.0,0.,12.0
1981-08-29 09:09:51.730 ,2,1,0.,12.0,0.,12.0,0.,12.0,0.,12.0
1981-08-29 09:10:03.730 ,2,0,0.,12.0,0.,12.0,0.,12.0,0.,12.0
1981-08-29 09:10:15.730 ,2,0,0.,12.0,0.,12.0,0.,12.0,0.,12.0
1981-08-29 09:10:27.730 ,1,1,0.,12.0,0.,12.0,0.,12.0,0.,12.0
1981-08-29 09:10:39.730 ,1,1,0.,12.0,0.,12.0,0.,12.0,0.,12.0
1981-08-29 09:10:51.730 ,1,0,0.,12.0,0.,12.0,0.,12.0,0.,12.0
1981-08-29 09:11:03.730 ,1,0,0.,12.0,0.,12.0,0.,12.0,0.,12.0
1981-08-29 09:11:15.730 ,0,1,0.,12.0,0.,12.0,0.,12.0,0.,12.0
1981-08-29 09:11:27.730 ,0,1,0.,12.0,0.,12.0,0.,12.0,0.,12.0
1981-08-29 09:11:39.730 ,0,0,0.,12.0,0.,12.0,0.,12.0,0.,12.0
1981-08-29 09:11:51.730 ,0,0,0.,12.0,0.,12.0,0.,12.0,0.,12.0
1981-08-29 09:12:03.730 ,0,1,0.,12.0,0.,12.0,0.,12.0,0.,12.0
1981-08-29 09:12:15.730 ,0,1,0.,12.0,0.,12.0,0.,12.0,0.,12.0
1981-08-29 09:12:27.730 ,0,0,0.,12.0,0.,12.0,0.,12.0,0.,12.0
1981-08-29 09:12:39.730 ,0,0,0.,12.0,0.,12.0,0.,12.0,0.,12.0
1981-08-29 09:12:51.730 ,1,1,0.,12.0,0.,12.0,0.,12.0,0.,12.0
1981-08-29 09:13:03.730 ,1,1,0.,12.0,0.,12.0,0.,12.0,0.,12.0
1981-08-29 09:13:15.730 ,1,0,0.,12.0,0.,12.0,0.,12.0,0.,12.0
1981-08-29 09:13:27.730 ,1,0,0.,12.0,0.,12.0,0.,12.0,0.,12.0
1981-08-29 09:13:39.730 ,2,1,0.,12.0,0.,12.0,0.,12.0,0.,12.0
1981-08-29 09:13:51.730 ,2,1,0.,12.0,0.,12.0,0.,12.0,0.,12.0
1981-08-29 09:14:03.730 ,2,0,0.,12.0,0.,12.0,0.,12.0,0.,12.0
1981-08-29 09:14:15.730 ,2,0,0.,12.0,0.,12.0,0.,12.0,0.,12.0
1981-08-29 09:14:27.730 ,3,1,0.,12.0,0.,12.0,0.,12.0,0.,12.0
1981-08-29 09:14:39.730 ,3,1,0.,12.0,0.,12.0,0.,12.0,0.,12.0
1981-08-29 09:14:51.730 ,3,0,0.,12.0,0.,12.0,0.,12.0,0.,12.0
1981-08-29 09:15:03.730 ,3,0,0.,12.0,0.,12.0,0.,12.0,0.,12.0
1981-08-29 09:15:15.730 ,4,1,0.,12.0,0.,12.0,0.,12.0,0.,12.0
1981-08-29 09:15:27.730 ,4,1,0.,12.0,0.,12.0,0.,12.0,0.,12.0
1981-08-29 09:15:39.730 ,4,0,0.,12.0,0.,12.0,0.,12.0,0.,12.0
1981-08-29 09:15:51.730 ,4,0,0.,12.0,0.,12.0,0.,12.0,0.,12.0
1981-08-29 09:16:03.730 ,5,1,0.,12.0,0.,12.0,0.,12.0,0.,12.0
1981-08-29 09:16:15.730 ,5,1,0.,12.0,0.,12.0,0.,12.0,0.,12.0
1981-08-29 09:16:27.730 ,5,0,0.,12.0,0.,12.0,0.,12.0,0.,12.0
1981-08-29 09:16:39.730 ,5,0,0.,12.0,0.,12.0,0.,12.0,0.,12.0
1981-08-29 09:16:51.730 ,6,1,0.,12.0,0.,12.0,0.,12.0,0.,12.0
1981-08-29 09:17:03.730 ,6,1,0.,12.0,0.,12.0,0.,12.0,0.,12.0
1981-08-29 09:17:15.730 ,6,0,0.,12.0,0.,12.0,0.,12.0,0.,12.0
1981-08-29 09:17:27.730 ,6,0,0.,12.0,0.,12.0,0.,12.0,0.,12.0
1981-08-29 09:17:39.730 ,7,1,0.,12.0,0.,12.0,0.,12.0,0.,12.0
1981-08-29 09:17:51.730 ,7,1,0.,12.0,0.,12.0,0.,12.0,0.,12.0
1981-08-29 09:18:03.730 ,7,0,0.,12.0,0.,12.0,0.,12.0,0.,12.0
1981-08-29 09:18:15.730 ,7,0,0.,12.0,0.,12.0,0.,12.0,0.,12.0
1981-08-29 09:18:27.730 ,7,1,0.,12.0,0.,12.0,0.,12.0,0.,12.0
1981-08-29 09:18:39.730 ,7,1,0.,12.0,0.,12.0,0.,12.0,0.,12.0
1981-08-29 09:18:51.730 ,6,1,0.,12.0,0.,12.0,0.,12.0,0.,12.0
1981-08-29 09:19:03.730 ,6,1,0.,12.0,0.,12.0,0.,12.0,0.,12.0
1981-08-29 09:19:15.730 ,5,1,0.,12.0,0.,12.0,0.,12.0,0.,12.0
1981-08-29 09:19:27.730 ,5,1,0.,12.0,0.,12.0,0.,12.0,0.,12.0
1981-08-29 09:19:39.730 ,4,1,0.,12.0,0.,12.0,0.,12.0,0.,12.0
1981-08-29 09:19:51.730 ,4,1,0.,12.0,0.,12.0,0.,12.0,0.,12.0
1981-08-29 09:20:03.730 ,3,1,0.,12.0,0.,12.0,0.,12.0,0.,12.0
1981-08-29 09:20:15.730 ,3,1,0.,12.0,0.,12.0,0.,12.0,0.,12.0
1981-08-29 09:20:27.730 ,2,1,0.,12.0,0.,12.0,0.,12.0,0.,12.0
1981-08-29 09:20:39.730 ,2,1,0.,12.0,0.,12.0,0.,12.0,0.,12.0
1981-08-29 09:20:51.730 ,1,1,0.,12.0,0.,12.0,0.,12.0,0.,12.0
1981-08-29 09:21:03.730 ,1,1,0.,12.0,0.,12.0,0.,12.0,0.,12.0
1981-08-29 09:21:15.730 ,0,1,0.,12.0,0.,12.0,0.,12.0,0.,12.0
1981-08-29 09:21:27.730 ,0,1,0.,12.0,0.,12.0,0.,12.0,0.,12.0
1981-08-29 09:21:39.730 ,0,1,0.,12.0,0.,12.0,0.,12.0,0.,12.0
1981-08-29 09:21:51.730 ,0,1,0.,12.0,0.,12.0,0.,12.0,0.,12.0
1981-08-29 09:22:03.730 ,1,1,0.,12.0,0.,12.0,0.,12.0,0.,12.0
1981-08-29 09:22:15.730 ,1,1,0.,12.0,0.,12.0,0.,12.0,0.,12.0
1981-08-29 09:22:27.730 ,2,1,0.,12.0,0.,12.0,0.,12.0,0.,12.0
1981-08-29 09:22:39.730 ,2,1,0.,12.0,0.,12.0,0.,12.0,0.,12.0
1981-08-29 09:22:51.730 ,3,1,0.,12.0,0.,12.0,0.,12.0,0.,12.0
1981-08-29 09:23:03.730 ,3,1,0.,12.0,0.,12.0,0.,12.0,0.,12.0
1981-08-29 09:23:15.730 ,4,1,0.,12.0,0.,12.0,0.,12.0,0.,12.0
1981-08-29 09:23:27.730 ,4,1,0.,12.0,0.,12.0,0.,12.0,0.,12.0
1981-08-29 09:23:39.730 ,5,1,0.,12.0,0.,12.0,0.,12.0,0.,12.0
1981-08-29 09:23:51.730 ,5,1,0.,12.0,0.,12.0,0.,12.0,0.,12.0
1981-08-29 09:24:03.730 ,6,1,0.,12.0,0.,12.0,0.,12.0,0.,12.0
1981-08-29 09:24:15.730 ,6,1,0.,12.0,0.,12.0,0.,12.0,0.,12.0
1981-08-29 09:24:27.730 ,7,1,0.,12.0,0.,12.0,0.,12.0,0.,12.0
1981-08-29 09:24:39.730 ,7,1,0.,12.0,0.,12.0,0.,12.0,0.,12.0
1981-08-29 09:24:51.730 ,7,1,0.,12.0,0.,12.0,0.,12.0,0.,12.0
1981-08-29 09:25:03.730 ,7,1,0.,12.0,0.,12.0,0.,12.0,0.,12.0
1981-08-29 09:25:15.730 ,7,0,0.,12.0,0.,12.0,0.,12.0,0.,12.0
1981-08-29 09:25:27.730 ,7,0,0.,12.0,0.,12.0,0.,12.0,0.,12.0
1981-08-29 09:25:39.730 ,6,1,0.,12.0,0.,12.0,0.,12.0,0.,12.0
1981-08-29 09:25:51.730 ,6,1,0.,12.0,0.,12.0,0.,12.0,0.,12.0
1981-08-29 09:26:03.730 ,6,0,0.,12.0,0.,12.0,0.,12.0,0.,12.0
1981-08-29 09:26:15.730 ,6,0,0.,12.0,0.,12.0,0.,12.0,0.,12.0
1981-08-29 09:26:27.730 ,5,1,0.,12.0,0.,12.0,0.,12.0,0.,12.0
1981-08-29 09:26:39.730 ,5,1,0.,12.0,0.,12.0,0.,12.0,0.,12.0
1981-08-29 09:26:51.730 ,5,0,0.,12.0,0.,12.0,0.,12.0,0.,12.0
1981-08-29 09:27:03.730 ,5,0,0.,12.0,0.,12.0,0.,12.0,0.,12.0
1981-08-29 09:27:15.730 ,4,1,0.,12.0,0.,12.0,0.,12.0,0.,12.0
1981-08-29 09:27:27.730 ,4,1,0.,12.0,0.,12.0,0.,12.0,0.,12.0
1981-08-29 09:27:39.730 ,4,0,0.,12.0,0.,12.0,0.,12.0,0.,12.0
1981-08-29 09:27:51.730 ,4,0,0.,12.0,0.,12.0,0.,12.0,0.,12.0
1981-08-29 09:28:03.730 ,3,1,0.,12.0,0.,12.0,0.,12.0,0.,12.0
1981-08-29 09:28:15.730 ,3,1,0.,12.0,0.,12.0,0.,12.0,0.,12.0
1981-08-29 09:28:27.730 ,3,0,0.,12.0,0.,12.0,0.,12.0,0.,12.0
1981-08-29 09:28:39.730 ,3,0,0.,12.0,0.,12.0,0.,12.0,0.,12.0
1981-08-29 09:28:51.730 ,2,1,0.,12.0,0.,12.0,0.,12.0,0.,12.0
1981-08-29 09:29:03.730 ,2,1,0.,12.0,0.,12.0,0.,12.0,0.,12.0
1981-08-29 09:29:15.730 ,2,0,0.,12.0,0.,12.0,0.,12.0,0.,12.0
1981-08-29 09:29:27.730 ,2,0,0.,12.0,0.,12.0,0.,12.0,0.,12.0
1981-08-29 09:29:39.730 ,1,1,0.,12.0,0.,12.0,0.,12.0,0.,12.0
1981-08-29 09:29:51.730 ,1,1,0.,12.0,0.,12.0,0.,12.0,0.,12.0
1981-08-29 09:30:03.730 ,1,0,0.,12.0,0.,12.0,0.,12.0,0.,12.0
1981-08-29 09:30:15.730 ,1,0,0.,12.0,0.,12.0,0.,12.0,0.,12.0
1981-08-29 09:30:27.730 ,0,1,0.,12.0,0.,12.0,0.,12.0,0.,12.0
1981-08-29 09:30:39.730 ,0,1,0.,12.0,0.,12.0,0.,12.0,0.,12.0
1981-08-29 09:30:51.730 ,0,0,0.,12.0,0.,12.0,0.,12.0,0.,12.0
1981-08-29 09:31:03.730 ,0,0,0.,12.0,0.,12.0,0.,12.0,0.,12.0
1981-08-29 09:31:15.730 ,0,1,0.,12.0,0.,12.0,0.,12.0,0.,12.0
1981-08-29 09:31:27.730 ,0,1,0.,12.0,0.,12.0,0.,12.0,0.,12.0
1981-08-29 09:31:39.730 ,0,0,0.,12.0,0.,12.0,0.,12.0,0.,12.0
1981-08-29 09:31:51.730 ,0,0,0.,12.0,0.,12.0,0.,12.0,0.,12.0
1981-08-29 09:32:03.730 ,1,1,0.,12.0,0.,12.0,0.,12.0,0.,12.0
1981-08-29 09:32:15.730 ,1,1,0.,12.0,0.,12.0,0.,12.0,0.,12.0
1981-08-29 09:32:27.730 ,1,0,0.,12.0,0.,12.0,0.,12.0,0.,12.0
1981-08-29 09:32:39.730 ,1,0,0.,12.0,0.,12.0,0.,12.0,0.,12.0
1981-08-29 09:32:51.730 ,2,1,0.,12.0,0.,12.0,0.,12.0,0.,12.0
1981-08-29 09:33:03.730 ,2,1,0.,12.0,0.,12.0,0.,12.0,0.,12.0
1981-08-29 09:33:15.730 ,2,0,0.,12.0,0.,12.0,0.,12.0,0.,12.0
1981-08-29 09:33:27.730 ,2,0,0.,12.0,0.,12.0,0.,12.0,0.,12.0
1981-08-29 09:33:39.730 ,3,1,0.,12.0,0.,12.0,0.,12.0,0.,12.0
1981-08-29 09:33:51.730 ,3,1,0.,12.0,0.,12.0,0.,12.0,0.,12.0
1981-08-29 09:34:03.730 ,3,0,0.,12.0,0.,12.0,0.,12.0,0.,12.0
1981-08-29 09:34:15.730 ,3,0,0.,12.0,0.,12.0,0.,12.0,0.,12.0
1981-08-29 09:34:27.730 ,4,1,0.,12.0,0.,12.0,0.,12.0,0.,12.0
1981-08-29 09:34:39.730 ,4,1,0.,12.0,0.,12.0,0.,12.0,0.,12.0
1981-08-29 09:34:51.730 ,4,0,0.,12.0,0.,12.0,0.,12.0,0.,12.0
1981-08-29 09:35:03.730 ,4,0,0.,12.0,0.,12.0,0.,12.0,0.,12.0
1981-08-29 09:35:15.730 ,5,1,0.,12.0,0.,12.0,0.,12.0,0.,12.0
1981-08-29 09:35:27.730 ,5,1,0.,12.0,0.,12.0,0.,12.0,0.,12.0
1981-08-29 09:35:39.730 ,5,0,0.,12.0,0.,12.0,0.,12.0,0.,12.0
1981-08-29 09:35:51.730 ,5,0,0.,12.0,0.,12.0,0.,12.0,0.,12.0
1981-08-29 09:36:03.730 ,6,1,0.,12.0,0.,12.0,0.,12.0,0.,12.0
1981-08-29 09:36:15.730 ,6,1,0.,12.0,0.,12.0,0.,12.0,0.,12.0
1981-08-29 09:36:27.730 ,6,0,0.,12.0,0.,12.0,0.,12.0,0.,12.0
1981-08-29 09:36:39.730 ,6,0,0.,12.0,0.,12.0,0.,12.0,0.,12.0
1981-08-29 09:36:51.730 ,7,1,0.,12.0,0.,12.0,0.,12.0,0.,12.0
1981-08-29 09:37:03.730 ,7,1,0.,12.0,0.,12.0,0.,12.0,0.,12.0
1981-08-29 09:37:15.730 ,7,0,0.,12.0,0.,12.0,0.,12.0,0.,12.0
1981-08-29 09:37:27.730 ,7,0,0.,12.0,0.,12.0,0.,12.0,0.,12.0
1981-08-29 09:37:39.730 ,7,1,0.,12.0,0.,12.0,0.,12.0,0.,12.0
1981-08-29 09:37:51.730 ,7,1,0.,12.0,0.,12.0,0.,12.0,0.,12.0
1981-08-29 09:38:03.730 ,6,1,0.,12.0,0.,12.0,0.,12.0,0.,12.0
1981-08-29 09:38:15.730 ,6,1,0.,12.0,0.,12.0,0.,12.0,0.,12.0
1981-08-29 09:38:27.730 ,5,1,0.,12.0,0.,12.0,0.,12.0,0.,12.0
1981-08-29 09:38:39.730 ,5,1,0.,12.0,0.,12.0,0.,12.0,0.,12.0
1981-08-29 09:38:51.730 ,4,1,0.,12.0,0.,12.0,0.,12.0,0.,12.0
1981-08-29 09:39:03.730 ,4,1,0.,12.0,0.,12.0,0.,12.0,0.,12.0
1981-08-29 09:39:15.730 ,3,1,0.,12.0,0.,12.0,0.,12.0,0.,12.0
1981-08-29 09:39:27.730 ,3,1,0.,12.0,0.,12.0,0.,12.0,0.,12.0
1981-08-29 09:39:39.730 ,2,1,0.,12.0,0.,12.0,0.,12.0,0.,12.0
1981-08-29 09:39:51.730 ,2,1,0.,12.0,0.,12.0,0.,12.0,0.,12.0
1981-08-29 09:40:03.730 ,1,1,0.,12.0,0.,12.0,0.,12.0,0.,12.0
1981-08-29 09:40:15.730 ,1,1,0.,12.0,0.,12.0,0.,12.0,0.,12.0
1981-08-29 09:40:27.730 ,0,1,0.,12.0,0.,12.0,0.,12.0,0.,12.0
1981-08-29 09:40:39.730 ,0,1,0.,12.0,0.,12.0,0.,12.0,0.,12.0
1981-08-29 09:40:51.730 ,0,1,0.,12.0,0.,12.0,0.,12.0,0.,12.0
1981-08-29 09:41:03.730 ,0,1,0.,12.0,0.,12.0,0.,12.0,0.,12.0
1981-08-29 09:41:15.730 ,1,1,0.,12.0,0.,12.0,0.,12.0,0.,12.0
1981-08-29 09:41:27.730 ,1,1,0.,12.0,0.,12.0,0.,12.0,0.,12.0
1981-08-29 09:41:39.730 ,2,1,0.,12.0,0.,12.0,0.,12.0,0.,12.0
1981-08-29 09:41:51.730 ,2,1,0.,12.0,0.,12.0,0.,12.0,0.,12.0
1981-08-29 09:42:03.730 ,3,1,0.,12.0,0.,12.0,0.,12.0,0.,12.0
1981-08-29 09:42:15.730 ,3,1,0.,12.0,0.,12.0,0.,12.0,0.,12.0
1981-08-29 09:42:27.730 ,4,1,0.,12.0,0.,12.0,0.,12.0,0.,12.0
1981-08-29 09:42:39.730 ,4,1,0.,12.0,0.,12.0,0.,12.0,0.,12.0
1981-08-29 09:42:51.730 ,5,1,0.,12.0,0.,12.0,0.,12.0,0.,12.0
1981-08-29 09:43:03.730 ,5,1,0.,12.0,0.,12.0,0.,12.0,0.,12.0
1981-08-29 09:43:15.730 ,6,1,0.,12.0,0.,12.0,0.,12.0,0.,12.0
1981-08-29 09:43:27.730 ,6,1,0.,12.0,0.,12.0,0.,12.0,0.,12.0
1981-08-29 09:43:39.730 ,7,1,0.,12.0,0.,12.0,0.,12.0,0.,12.0
1981-08-29 09:43:51.730 ,7,1,0.,12.0,0.,12.0,0.,12.0,0.,12.0
1981-08-29 09:44:03.730 ,7,1,0.,12.0,0.,12.0,0.,12.0,0.,12.0
1981-08-29 09:44:15.730 ,7,1,0.,12.0,0.,12.0,0.,12.0,0.,12.0
1981-08-29 09:44:27.730 ,7,0,0.,12.0,0.,12.0,0.,12.0,0.,12.0
1981-08-29 09:44:39.730 ,7,0,0.,12.0,0.,12.0,0.,12.0,0.,12.0
1981-08-29 09:44:51.730 ,6,1,0.,12.0,0.,12.0,0.,12.0,0.,12.0
1981-08-29 09:45:03.730 ,6,1,0.,12.0,0.,12.0,0.,12.0,0.,12.0
1981-08-29 09:45:15.730 ,6,0,0.,12.0,0.,12.0,0.,12.0,0.,12.0
1981-08-29 09:45:27.730 ,6,0,0.,12.0,0.,12.0,0.,12.0,0.,12.0
1981-08-29 09:45:39.730 ,5,1,0.,12.0,0.,12.0,0.,12.0,0.,12.0
1981-08-29 09:45:51.730 ,5,1,0.,12.0,0.,12.0,0.,12.0,0.,12.0
1981-08-29 09:46:03.730 ,5,0,0.,12.0,0.,12.0,0.,12.0,0.,12.0
1981-08-29 09:46:15.730 ,5,0,0.,12.0,0.,12.0,0.,12.0,0.,12.0
1981-08-29 09:46:27.730 ,4,1,0.,12.0,0.,12.0,0.,12.0,0.,12.0
1981-08-29 09:46:39.730 ,4,1,0.,12.0,0.,12.0,0.,12.0,0.,12.0
1981-08-29 09:46:51.730 ,4,0,0.,12.0,0.,12.0,0.,12.0,0.,12.0
1981-08-29 09:47:03.730 ,4,0,0.,12.0,0.,12.0,0.,12.0,0.,12.0
1981-08-29 09:47:15.730 ,3,1,0.,12.0,0.,12.0,0.,12.0,0.,12.0
1981-08-29 09:47:27.730 ,3,1,0.,12.0,0.,12.0,0.,12.0,0.,12.0
1981-08-29 09:47:39.730 ,3,0,0.,12.0,0.,12.0,0.,12.0,0.,12.0
1981-08-29 09:47:51.730 ,3,0,0.,12.0,0.,12.0,0.,12.0,0.,12.0
1981-08-29 09:48:03.730 ,2,1,0.,12.0,0.,12.0,0.,12.0,0.,12.0
1981-08-29 09:48:15.730 ,2,1,0.,12.0,0.,12.0,0.,12.0,0.,12.0
1981-08-29 09:48:27.730 ,2,0,0.,12.0,0.,12.0,0.,12.0,0.,12.0
1981-08-29 09:48:39.730 ,2,0,0.,12.0,0.,12.0,0.,12.0,0.,12.0
1981-08-29 09:48:51.730 ,1,1,0.,12.0,0.,12.0,0.,12.0,0.,12.0
1981-08-29 09:49:03.730 ,1,1,0.,12.0,0.,12.0,0.,12.0,0.,12.0
1981-08-29 09:49:15.730 ,1,0,0.,12.0,0.,12.0,0.,12.0,0.,12.0
1981-08-29 09:49:27.730 ,1,0,0.,12.0,0.,12.0,0.,12.0,0.,12.0
1981-08-29 09:49:39.730 ,0,1,0.,12.0,0.,12.0,0.,12.0,0.,12.0
1981-08-29 09:49:51.730 ,0,1,0.,12.0,0.,12.0,0.,12.0,0.,12.0
1981-08-29 09:50:03.730 ,0,0,0.,12.0,0.,12.0,0.,12.0,0.,12.0
1981-08-29 09:50:15.730 ,0,0,0.,12.0,0.,12.0,0.,12.0,0.,12.0
1981-08-29 09:50:27.730 ,0,1,0.,12.0,0.,12.0,0.,12.0,0.,12.0
1981-08-29 09:50:39.730 ,0,1,0.,12.0,0.,12.0,0.,12.0,0.,12.0
1981-08-29 09:50:51.730 ,0,0,0.,12.0,0.,12.0,0.,12.0,0.,12.0
1981-08-29 09:51:03.730 ,0,0,0.,12.0,0.,12.0,0.,12.0,0.,12.0
1981-08-29 09:51:15.730 ,1,1,0.,12.0,0.,12.0,0.,12.0,0.,12.0
1981-08-29 09:51:27.730 ,1,1,0.,12.0,0.,12.0,0.,12.0,0.,12.0
1981-08-29 09:51:39.730 ,1,0,0.,12.0,0.,12.0,0.,12.0,0.,12.0
1981-08-29 09:51:51.730 ,1,0,0.,12.0,0.,12.0,0.,12.0,0.,12.0
1981-08-29 09:52:03.730 ,2,1,0.,12.0,0.,12.0,0.,12.0,0.,12.0
1981-08-29 09:52:15.730 ,2,1,0.,12.0,0.,12.0,0.,12.0,0.,12.0
1981-08-29 09:52:27.730 ,2,0,0.,12.0,0.,12.0,0.,12.0,0.,12.0
1981-08-29 09:52:39.730 ,2,0,0.,12.0,0.,12.0,0.,12.0,0.,12.0
1981-08-29 09:52:51.730 ,3,1,0.,12.0,0.,12.0,0.,12.0,0.,12.0
1981-08-29 09:53:03.730 ,3,1,0.,12.0,0.,12.0,0.,12.0,0.,12.0
1981-08-29 09:53:15.730 ,3,0,0.,12.0,0.,12.0,0.,12.0,0.,12.0
1981-08-29 09:53:27.730 ,3,0,0.,12.0,0.,12.0,0.,12.0,0.,12.0
1981-08-29 09:53:39.730 ,4,1,0.,12.0,0.,12.0,0.,12.0,0.,12.0
1981-08-29 09:53:51.730 ,4,1,0.,12.0,0.,12.0,0.,12.0,0.,12.0
1981-08-29 09:54:03.730 ,4,0,0.,12.0,0.,12.0,0.,12.0,0.,12.0
1981-08-29 09:54:15.730 ,4,0,0.,12.0,0.,12.0,0.,12.0,0.,12.0
1981-08-29 09:54:27.730 ,5,1,0.,12.0,0.,12.0,0.,12.0,0.,12.0
1981-08-29 09:54:39.730 ,5,1,0.,12.0,0.,12.0,0.,12.0,0.,12.0
1981-08-29 09:54:51.730 ,5,0,0.,12.0,0.,12.0,0.,12.0,0.,12.0
1981-08-29 09:55:03.730 ,5,0,0.,12.0,0.,12.0,0.,12.0,0.,12.0
1981-08-29 09:55:15.730 ,6,1,0.,12.0,0.,12.0,0.,12.0,0.,12.0
1981-08-29 09:55:27.730 ,6,1,0.,12.0,0.,12.0,0.,12.0,0.,12.0
1981-08-29 09:55:39.730 ,6,0,0.,12.0,0.,12.0,0.,12.0,0.,12.0
1981-08-29 09:55:51.730 ,6,0,0.,12.0,0.,12.0,0.,12.0,0.,12.0
1981-08-29 09:56:03.730 ,7,1,0.,12.0,0.,12.0,0.,12.0,0.,12.0
1981-08-29 09:56:15.730 ,7,1,0.,12.0,0.,12.0,0.,12.0,0.,12.0
1981-08-29 09:56:27.730 ,7,0,0.,12.0,0.,12.0,0.,12.0,0.,12.0
1981-08-29 09:56:39.730 ,7,0,0.,12.0,0.,12.0,0.,12.0,0.,12.0
1981-08-29 09:56:51.730 ,7,1,0.,12.0,0.,12.0,0.,12.0,0.,12.0
1981-08-29 09:57:03.730 ,7,1,0.,12.0,0.,12.0,0.,12.0,0.,12.0
1981-08-29 09:57:15.730 ,6,1,0.,12.0,0.,12.0,0.,12.0,0.,12.0
1981-08-29 09:57:27.730 ,6,1,0.,12.0,0.,12.0,0.,12.0,0.,12.0
1981-08-29 09:57:39.730 ,5,1,0.,12.0,0.,12.0,0.,12.0,0.,12.0
1981-08-29 09:57:51.730 ,5,1,0.,12.0,0.,12.0,0.,12.0,0.,12.0
1981-08-29 09:58:03.730 ,4,1,0.,12.0,0.,12.0,0.,12.0,0.,12.0
1981-08-29 09:58:15.730 ,4,1,0.,12.0,0.,12.0,0.,12.0,0.,12.0
1981-08-29 09:58:27.730 ,3,1,0.,12.0,0.,12.0,0.,12.0,0.,12.0
1981-08-29 09:58:39.730 ,3,1,0.,12.0,0.,12.0,0.,12.0,0.,12.0
1981-08-29 09:58:51.730 ,2,1,0.,12.0,0.,12.0,0.,12.0,0.,12.0
1981-08-29 09:59:03.730 ,2,1,0.,12.0,0.,12.0,0.,12.0,0.,12.0
1981-08-29 09:59:15.730 ,1,1,0.,12.0,0.,12.0,0.,12.0,0.,12.0
1981-08-29 09:59:27.730 ,1,1,0.,12.0,0.,12.0,0.,12.0,0.,12.0
1981-08-29 09:59:39.730 ,0,1,0.,12.0,0.,12.0,0.,12.0,0.,12.0
1981-08-29 09:59:51.730 ,0,1,0.,12.0,0.,12.0,0.,12.0,0.,12.0
1981-08-29 10:00:03.730 ,0,1,0.,12.0,0.,12.0,0.,12.0,0.,12.0
1981-08-29 10:00:15.730 ,0,1,0.,12.0,0.,12.0,0.,12.0,0.,12.0
1981-08-29 10:00:27.730 ,1,1,0.,12.0,0.,12.0,0.,12.0,0.,12.0
1981-08-29 10:00:39.730 ,1,1,0.,12.0,0.,12.0,0.,12.0,0.,12.0
1981-08-29 10:00:51.730 ,2,1,0.,12.0,0.,12.0,0.,12.0,0.,12.0
1981-08-29 10:01:03.730 ,2,1,0.,12.0,0.,12.0,0.,12.0,0.,12.0
1981-08-29 10:01:15.730 ,3,1,0.,12.0,0.,12.0,0.,12.0,0.,12.0
1981-08-29 10:01:27.730 ,3,1,0.,12.0,0.,12.0,0.,12.0,0.,12.0
1981-08-29 10:01:39.730 ,4,1,0.,12.0,0.,12.0,0.,12.0,0.,12.0
1981-08-29 10:01:51.730 ,4,1,0.,12.0,0.,12.0,0.,12.0,0.,12.0
1981-08-29 10:02:03.730 ,5,1,0.,12.0,0.,12.0,0.,12.0,0.,12.0
1981-08-29 10:02:15.730 ,5,1,0.,12.0,0.,12.0,0.,12.0,0.,12.0
1981-08-29 10:02:27.730 ,6,1,0.,12.0,0.,12.0,0.,12.0,0.,12.0
1981-08-29 10:02:39.730 ,6,1,0.,12.0,0.,12.0,0.,12.0,0.,12.0
1981-08-29 10:02:51.730 ,7,1,0.,12.0,0.,12.0,0.,12.0,0.,12.0
1981-08-29 10:03:03.730 ,7,1,0.,12.0,0.,12.0,0.,12.0,0.,12.0
1981-08-29 10:03:15.730 ,7,1,0.,12.0,0.,12.0,0.,12.0,0.,12.0
1981-08-29 10:03:27.730 ,7,1,0.,12.0,0.,12.0,0.,12.0,0.,12.0
1981-08-29 10:03:39.730 ,7,0,0.,12.0,0.,12.0,0.,12.0,0.,12.0
1981-08-29 10:03:51.730 ,7,0,0.,12.0,0.,12.0,0.,12.0,0.,12.0
1981-08-29 10:04:03.730 ,6,1,0.,12.0,0.,12.0,0.,12.0,0.,12.0
1981-08-29 10:04:15.730 ,6,1,0.,12.0,0.,12.0,0.,12.0,0.,12.0
1981-08-29 10:04:27.730 ,6,0,0.,12.0,0.,12.0,0.,12.0,0.,12.0
1981-08-29 10:04:39.730 ,6,0,0.,12.0,0.,12.0,0.,12.0,0.,12.0
1981-08-29 10:04:51.730 ,5,1,0.,12.0,0.,12.0,0.,12.0,0.,12.0
1981-08-29 10:05:03.730 ,5,1,0.,12.0,0.,12.0,0.,12.0,0.,12.0
1981-08-29 10:05:15.730 ,5,0,0.,12.0,0.,12.0,0.,12.0,0.,12.0
1981-08-29 10:05:27.730 ,5,0,0.,12.0,0.,12.0,0.,12.0,0.,12.0
1981-08-29 10:05:39.730 ,4,1,0.,12.0,0.,12.0,0.,12.0,0.,12.0
1981-08-29 10:05:51.730 ,4,1,0.,12.0,0.,12.0,0.,12.0,0.,12.0
1981-08-29 10:06:03.730 ,4,0,0.,12.0,0.,12.0,0.,12.0,0.,12.0
1981-08-29 10:06:15.730 ,4,0,0.,12.0,0.,12.0,0.,12.0,0.,12.0
1981-08-29 10:06:27.730 ,3,1,0.,12.0,0.,12.0,0.,12.0,0.,12.0
1981-08-29 10:06:39.730 ,3,1,0.,12.0,0.,12.0,0.,12.0,0.,12.0
1981-08-29 10:06:51.730 ,3,0,0.,12.0,0.,12.0,0.,12.0,0.,12.0
1981-08-29 10:07:03.730 ,3,0,0.,12.0,0.,12.0,0.,12.0,0.,12.0
1981-08-29 10:07:15.730 ,2,1,0.,12.0,0.,12.0,0.,12.0,0.,12.0
1981-08-29 10:07:27.730 ,2,1,0.,12.0,0.,12.0,0.,12.0,0.,12.0
1981-08-29 10:07:39.730 ,2,0,0.,12.0,0.,12.0,0.,12.0,0.,12.0
1981-08-29 10:07:51.730 ,2,0,0.,12.0,0.,12.0,0.,12.0,0.,12.0
1981-08-29 10:08:03.730 ,1,1,0.,12.0,0.,12.0,0.,12.0,0.,12.0
1981-08-29 10:08:15.730 ,1,1,0.,12.0,0.,12.0,0.,12.0,0.,12.0
1981-08-29 10:08:27.730 ,1,0,0.,12.0,0.,12.0,0.,12.0,0.,12.0
1981-08-29 10:08:39.730 ,1,0,0.,12.0,0.,12.0,0.,12.0,0.,12.0
1981-08-29 10:08:51.730 ,0,1,0.,12.0,0.,12.0,0.,12.0,0.,12.0
1981-08-29 10:09:03.730 ,0,1,0.,12.0,0.,12.0,0.,12.0,0.,12.0
1981-08-29 10:09:15.730 ,0,0,0.,12.0,0.,12.0,0.,12.0,0.,12.0
1981-08-29 10:09:27.730 ,0,0,0.,12.0,0.,12.0,0.,12.0,0.,12.0
1981-08-29 10:13:34.930 ,0,0,,0,,0,,0,,0
1981-08-29 10:13:46.930 ,0,0,,0,,0,,0,,0
1981-08-29 10:13:39.730 ,5,1,0.,12.0,0.,12.0,0.,12.0,0.,12.0
1981-08-29 10:13:51.730 ,5,1,0.,12.0,0.,12.0,0.,12.0,0.,12.0
1981-08-29 10:14:03.730 ,5,0,0.,12.0,0.,12.0,0.,12.0,0.,12.0
1981-08-29 10:14:15.730 ,5,0,0.,12.0,0.,12.0,0.,12.0,0.,12.0
1981-08-29 10:15:15.730 ,0,0,0.,12.0,0.,12.0,0.,12.0,0.,12.0
1981-08-29 10:15:27.730 ,0,0,0.,12.0,0.,12.0,0.,12.0,0.,12.0
1981-08-29 10:15:39.730 ,0,0,0.,12.0,0.,12.0,0.,12.0,0.,12.0
1981-08-29 10:15:51.730 ,0,0,0.,12.0,0.,12.0,0.,12.0,0.,12.0
1981-08-29 10:15:39.730 ,0,0,0.,12.0,0.,12.0,0.,12.0,0.,12.0
1981-08-29 10:15:51.730 ,0,0,0.,12.0,0.,12.0,0.,12.0,0.,12.0
1981-08-29 10:16:03.730 ,7,1,0.,12.0,0.,12.0,0.,12.0,0.,12.0
1981-08-29 10:16:15.730 ,7,1,0.,12.0,0.,12.0,0.,12.0,0.,12.0
1981-08-29 10:16:27.730 ,6,1,0.,12.0,0.,12.0,0.,12.0,0.,12.0
1981-08-29 10:16:39.730 ,6,1,0.,12.0,0.,12.0,0.,12.0,0.,12.0
1981-08-29 10:16:51.730 ,5,1,0.,12.0,0.,12.0,0.,12.0,0.,12.0
1981-08-29 10:17:03.730 ,5,1,0.,12.0,0.,12.0,0.,12.0,0.,12.0
1981-08-29 10:17:15.730 ,4,1,0.,12.0,0.,12.0,0.,12.0,0.,12.0
1981-08-29 10:17:27.730 ,4,1,0.,12.0,0.,12.0,0.,12.0,0.,12.0
1981-08-29 10:17:39.730 ,3,1,0.,12.0,0.,12.0,0.,12.0,0.,12.0
1981-08-29 10:17:51.730 ,3,1,0.,12.0,0.,12.0,0.,12.0,0.,12.0
1981-08-29 10:18:03.730 ,2,1,0.,12.0,0.,12.0,0.,12.0,0.,12.0
1981-08-29 10:18:15.730 ,2,1,0.,12.0,0.,12.0,0.,12.0,0.,12.0
1981-08-29 10:18:27.730 ,1,1,0.,12.0,0.,12.0,0.,12.0,0.,12.0
1981-08-29 10:18:39.730 ,1,1,0.,12.0,0.,12.0,0.,12.0,0.,12.0
1981-08-29 10:18:51.730 ,0,1,0.,12.0,0.,12.0,0.,12.0,0.,12.0
1981-08-29 10:19:03.730 ,0,1,0.,12.0,0.,12.0,0.,12.0,0.,12.0
1981-08-29 10:19:15.730 ,0,1,0.,12.0,0.,12.0,0.,12.0,0.,12.0
1981-08-29 10:19:27.730 ,0,1,0.,12.0,0.,12.0,0.,12.0,0.,12.0
1981-08-29 10:19:39.730 ,1,1,0.,12.0,0.,12.0,0.,12.0,0.,12.0
1981-08-29 10:19:51.730 ,1,1,0.,12.0,0.,12.0,0.,12.0,0.,12.0
1981-08-29 10:20:03.730 ,2,1,0.,12.0,0.,12.0,0.,12.0,0.,12.0
1981-08-29 10:20:15.730 ,2,1,0.,12.0,0.,12.0,0.,12.0,0.,12.0
1981-08-29 10:20:27.730 ,3,1,0.,12.0,0.,12.0,0.,12.0,0.,12.0
1981-08-29 10:20:39.730 ,3,1,0.,12.0,0.,12.0,0.,12.0,0.,12.0
1981-08-29 10:20:51.730 ,4,1,0.,12.0,0.,12.0,0.,12.0,0.,12.0
1981-08-29 10:21:03.730 ,4,1,0.,12.0,0.,12.0,0.,12.0,0.,12.0
1981-08-29 10:21:15.730 ,5,1,0.,12.0,0.,12.0,0.,12.0,0.,12.0
1981-08-29 10:21:27.730 ,5,1,0.,12.0,0.,12.0,0.,12.0,0.,12.0